SCP
0 0 0 0 0 0 0 0 0 0 0 0 0 0 0 0 0 0 0 0 0 0 0 0 0 0 0 0 0 0 0 0 0 1 1 1 1 0
0 0 0 0 0 0 0 0 0 0 0 0 0 0 0 0 0 0 0 0 0 0 0 0 0 0 0 0 0 0 0 0 0 0 0 0 0 0
0 0 0 0 0 0 0 0 0 0 0 0 0 0 0 0 0 0 0 0 0 0 0 0 0 0 0 0 0 0 0 0 0 0 0 0 0 0
0 0 0 0 0 0 0 0 0 0 0 0 0 0 0 0 0 0 0 0 0 0 0 0 0 0 0 0 0 0 0 0 0 0 0 0 0 0
0 0 0 0 0 0 0 0 0 0 0 0 0 0 0 0 0 0 0 0 0 0 0 0 0 0 0 0 0 0 0 0 0 0 0 0 0 0
0 0 0 0 0 0 0 0 0 0 0 0 0 0 0 0 0 0 0 0 0 0 0 0 0 0 0 0 0 0 0 0 0 0 0 0 0 0
0 0 0 0 0 0 0 0 0 0 0 0 0 0 0 0 0 0 0 0 0 0 0 0 0 0 0 0 0 0 0 0 0 0 0 0 0 0
0 0 0 0 0 0 0 0 0 0 0 0 0 0 0 0 0 0 0 0 0 0 0 0 0 0 0 0 0 0 0 0 0 0 0 0 0 0
0 0 0 0 0 0 0 0 0 0 0 0 0 0 0 0 0 0 0 0 0 0 0 0 0 0 0 0 0 0 0 0 0 0 0 0 0 0
0 0 0 0 0 0 0 0 0 0 0 0 0 0 0 0 0 0 0 0 0 0 0 0 0 0 0 0 0 0 0 0 0 0 0 0 0 0
0 0 0 0 0 0 0 0 0 0 0 0 0 0 0 0 0 0 0 0 0 0 0 0 0 0 0 0 0 0 0 0 0 0 0 0 0 0
0 0 0 0 0 0 0 0 0 0 0 0 0 0 0 0 0 0 0 0 0 0 0 0 0 0 0 0 0 0 0 0 0 0 0 0 0 0
0 0 0 0 0 0 0 0 0 0 0 0 0 0 0 0 0 0 0 0 0 0 0 0 0 0 0 0 0 0 0 0 0 0 0 0 0 0
0 0 0 0 0 0 0 0 0 0 0 0 0 0 0 0 0 0 0 0 0 0 0 0 0 0 0 0 0 0 0 0 0 0 0 0 0 0
0 0 0 0 0 0 0 0 0 0 0 0 0 0 0 0 0 0 0 0 0 0 0 0 0 0 0 0 0 0 0 0 0 0 0 0 0 0
0 0 0 0 0 0 0 0 0 0 0 0 0 0 0 0 0 0 0 0 0 0 0 0 0 0 0 0 0 0 0 0 0 0 0 0 0 0
0 0 0 0 0 0 0 0 0 0 0 0 0 0 0 0 0 0 0 0 0 0 0 0 0 0 0 0 0 0 0 0 0 0 0 0 0 0
0 0 0 0 0 0 0 0 0 0 0 0 0 0 0 0 0 0 0 0 0 0 0 0 0 0 0 0 0 0 0 0 0 0 0 0 0 0
0 0 0 0 0 0 0 0 0 0 0 0 0 0 0 0 0 0 0 0 0 0 0 0 0 0 0 0 0 0 0 0 0 0 0 0 0 0
0 0 0 0 0 0 0 0 0 0 0 0 0 0 0 0 0 0 0 0 0 0 0 0 0 0 0 0 0 0 0 0 0 0 0 0 0 0
0 0 0 0 0 0 0 0 0 0 0 0 0 0 0 0 0 0 0 0 0 0 0 0 0 0 0 0 0 0 0 0 0 0 0 0 0 0
0 0 0 0 0 0 0 0 0 0 0 0 0 0 0 0 0 0 0 0 0 0 0 0 0 0 0 0 0 0 0 0 0 0 0 0 0 0
0 0 0 0 0 0 0 0 0 0 0 0 0 0 0 0 0 0 0 0 0 0 0 0 0 0 0 0 0 0 0 0 0 0 0 0 0 0
Wind_Speed
3 3 2 3 2 2 3 3 3 2 3 4 3 3 2 2 3 3 3 7 9 10 12 12 13 14 15 16 18 20 20 20 20 20 20 20 20 20
3 3 3 3 3 2 2 3 3 4 4 3 3 4 3 3 3 3 4 7 9 9 10 12 13 14 14 15 17 18 19 20 20 20 20 19 19 19
3 3 4 4 3 3 2 2 3 3 4 4 3 3 3 4 4 3 4 4 5 9 10 11 13 14 15 15 17 17 18 19 20 20 20 19 19 19
4 4 5 4 4 3 3 3 3 3 4 5 3 3 4 4 4 4 4 4 4 8 11 12 13 14 15 15 16 17 18 18 19 19 19 20 20 20
5 5 5 4 5 4 4 4 4 4 3 4 4 3 3 3 3 4 4 4 5 6 9 11 12 13 14 15 16 17 17 18 18 19 19 19 19 19
5 5 5 5 6 6 5 5 4 4 3 3 4 3 3 3 2 3 3 3 4 4 5 6 8 11 13 15 16 16 17 17 18 18 18 18 18 18
5 5 6 8 10 7 6 5 5 4 3 3 4 3 3 2 3 2 3 3 4 3 3 3 3 4 6 10 14 16 16 17 17 18 18 18 18 17
6 6 7 8 10 10 10 10 8 7 6 5 4 5 6 5 4 3 3 2 4 2 2 4 3 4 5 5 10 14 15 16 17 17 18 18 18 17
6 6 6 7 7 6 8 10 9 11 12 7 7 8 7 6 5 4 4 4 5 4 2 4 3 4 4 5 10 12 14 15 16 17 17 17 17 17
7 7 7 7 8 7 6 6 7 7 8 7 7 9 8 7 6 6 6 5 5 4 3 4 3 3 3 4 8 11 12 13 15 16 16 16 16 16
7 7 7 7 10 10 6 6 7 7 9 11 11 11 12 12 8 4 4 3 4 4 4 4 3 3 3 3 4 9 10 11 12 14 15 15 15 14
6 6 9 8 9 8 5 5 7 7 6 6 6 7 7 9 11 8 6 6 4 4 4 4 3 2 2 2 2 2 4 7 10 11 13 13 14 9
5 5 6 9 10 9 6 6 9 8 5 5 5 5 5 5 6 6 7 7 7 6 5 4 3 3 3 2 1 2 2 3 3 5 9 12 14 12
6 6 6 10 10 10 7 9 12 9 4 4 5 6 6 6 6 6 8 8 9 9 7 6 4 4 3 3 2 1 2 2 3 4 4 8 10 12
6 9 10 11 10 9 11 13 10 6 5 6 7 7 7 7 6 5 5 6 7 8 8 7 6 5 5 4 4 3 2 2 3 4 5 6 6 7
5 6 9 10 9 10 10 8 6 6 7 7 6 7 5 5 5 5 4 4 4 5 5 7 8 8 6 5 5 4 4 3 4 4 4 4 5 6
2 2 3 4 5 5 5 6 6 5 7 7 7 7 6 5 5 4 4 4 4 4 4 3 5 6 7 6 5 5 5 4 4 5 5 4 5 6
3 3 5 5 6 7 6 6 6 6 6 6 6 6 6 6 5 4 4 4 5 5 5 4 3 3 2 4 6 6 5 5 5 5 4 5 5 5
4 6 6 7 7 7 6 6 6 6 5 6 6 6 6 6 5 5 5 5 5 5 5 4 4 5 6 5 4 7 7 6 6 6 5 4 5 6
6 7 7 7 7 7 6 6 6 6 5 5 6 6 6 5 5 5 5 6 5 5 4 4 5 6 7 6 4 4 9 8 7 7 5 3 2 4
6 7 7 7 7 6 6 6 6 6 6 5 5 6 5 5 5 5 5 7 6 5 6 6 6 8 4 3 3 3 3 6 7 6 6 5 4 4
6 7 7 7 6 6 6 6 5 5 6 5 5 5 5 5 6 6 5 5 5 6 6 5 4 4 4 5 5 4 3 3 3 5 3 3 5 7
6 6 6 6 6 5 5 5 6 5 5 5 5 5 5 5 5 5 5 5 4 5 5 4 4 4 4 5 5 4 6 6 4 3 2 4 3 5
Wind_Direction
273 273 261 256 246 230 210 192 196 256 281 280 285 290 290 280 266 249 246 242 237 232 232 233 233 230 225 221 218 215 214 214 214 214 214 214 215 218
264 271 272 263 264 253 230 214 195 202 243 261 260 271 285 285 265 253 252 254 247 242 236 233 232 232 229 224 220 216 214 212 213 213 212 211 211 213
277 269 269 266 264 264 253 232 217 197 232 264 260 272 277 280 284 273 263 254 254 250 247 241 234 231 230 227 222 218 215 214 213 213 212 211 211 211
266 266 269 270 263 259 251 246 239 220 216 253 270 274 268 271 270 273 270 256 249 256 251 249 242 236 231 228 224 220 216 214 214 212 212 212 212 212
257 256 261 262 263 259 251 247 246 249 222 231 257 259 267 275 283 282 275 272 264 259 254 248 243 239 235 230 225 221 217 215 215 213 213 212 212 213
258 255 256 251 250 253 254 248 245 247 238 236 251 260 262 270 264 271 288 282 276 273 261 252 246 241 236 231 226 221 217 216 215 214 214 213 212 212
263 261 261 263 258 252 252 241 236 238 240 238 247 254 258 262 255 249 264 284 280 256 266 263 252 247 236 232 228 222 216 214 214 214 214 213 212 212
262 268 273 274 275 273 270 257 234 228 230 229 236 236 245 240 241 243 247 272 287 272 253 269 239 247 243 230 228 221 217 214 214 213 212 209 208 208
250 260 272 273 277 270 274 277 263 249 233 222 228 235 236 231 228 241 234 230 239 251 240 267 252 249 248 240 230 224 220 215 212 210 209 208 206 205
248 248 252 264 270 261 262 267 262 259 249 237 229 237 236 230 220 226 234 245 256 253 210 245 251 251 257 245 231 222 219 215 211 208 206 206 204 203
255 254 249 256 264 266 257 260 267 270 265 253 243 243 245 242 231 227 235 234 258 259 212 216 239 246 254 252 238 222 218 215 211 206 202 201 200 197
260 260 256 254 262 267 246 244 259 266 271 279 271 267 257 253 243 222 218 224 233 252 226 201 219 210 262 258 232 214 209 212 209 205 200 196 190 190
251 255 254 256 259 262 251 234 245 254 261 260 265 269 265 255 247 230 218 217 221 232 225 191 206 203 208 247 262 215 202 195 188 195 195 192 189 188
242 247 251 257 258 261 258 249 254 261 256 255 256 257 254 253 248 240 232 227 226 228 222 200 205 203 201 213 233 217 197 200 191 187 183 183 191 195
240 247 256 264 266 266 259 259 259 249 241 246 250 251 246 247 247 248 246 236 235 236 230 213 210 210 202 209 212 205 203 213 198 188 184 186 189 185
248 262 272 273 268 261 264 264 248 233 230 241 247 250 248 245 243 236 237 234 239 251 236 217 212 209 214 212 208 210 193 192 191 189 181 189 188 190
234 273 274 275 274 271 266 259 251 242 237 239 242 249 249 245 244 232 224 219 223 236 242 229 217 213 207 196 206 211 199 195 193 184 182 194 199 193
193 243 258 259 260 263 265 266 257 247 242 238 237 239 241 242 245 235 219 216 225 231 229 221 199 193 208 233 209 204 203 201 192 186 183 196 201 193
209 242 249 254 257 256 254 255 257 253 243 237 236 236 235 236 237 238 228 220 226 229 227 210 196 200 212 223 223 203 197 193 186 192 194 193 198 189
224 241 248 252 253 254 254 254 255 254 245 239 236 233 229 230 233 235 229 225 224 225 227 216 208 208 212 212 204 201 194 188 189 191 187 170 144 138
237 241 246 250 251 251 252 252 252 251 246 238 235 231 227 225 231 233 230 229 224 221 225 227 224 209 198 172 187 199 188 191 185 179 170 163 161 161
248 248 249 248 249 251 252 252 253 252 248 241 238 234 227 222 227 230 229 226 223 222 227 231 213 187 183 195 204 192 174 150 128 111 107 153 169 178
247 250 252 253 252 252 250 250 250 251 245 240 237 233 227 225 226 226 227 226 226 225 221 215 203 193 194 195 193 182 171 164 153 139 68 26 101 124